Location: Rumah Long Bangan
(2.8362°N, 113.7519°E)
Time: 19:58:55
(UTC+00:00)

Cosmos 1725 Rocket - Pass Details

Date: 24 October 2021
Orbit: 962 x 990 km, 82.9° (Epoch: 07 December)

Event Time Altitude Azimuth Distance (km) Brightness Sun altitude
Rises 12:04:55 0° 185° (S) 3,693 7.2 -28.9°
Reaches altitude 10° 12:07:27 10° 186° (S) 2,741 6.5 -29.5°
Enters shadow 12:13:43 82° 269° (W) 993 3.9 -31.0°
